Showing default

RELAY 2, 737

Orbit data source: Space-Track

RELAY 2, 737 is a payload satellite owned by GSFC (US) that was launched on Tue, 21 Jan 1964 UTC via a THOR DELTA B launch vehicle from the Air Force Eastern Test Range (AFETR). Payload-class satellites include a variety of spacecraft equipped with specific instruments for various scientific and technological missions. These include communications satellites like Starlink; space stations such as the ISS; scientific satellites like the Hubble; Earth observation satellites from companies like Planet Labs, Umbra, and HawkEye 360; GPS; miniature CubeSats for education and research; and military/defense satellites.

Loading next visibility...
Identifier
737, 1964-003A
Orbit
Active
Country
Flag of USUS
Related business
Manufacturer
RCA/East Windsor
Mission
Spacecraft
Bus & Motor
RELAY, Unknown motor
Mass
83 kg wet, 83 kg dry
Launch date (UTC)
1964-01-21 (62 years ago)
Launch vehicle
THOR DELTA B
Launch site
Air Force Eastern Test Range (AFETR)
Object type
Payload
Rocket body
Debris
Shape & HBR
Unknown
Radar Cross Section
Medium (>0.1 m² and <1 m²)

Expand to show TLE details & history
Last TLE update: 13 hours ago

TLE from 13 hours ago
0 RELAY 2
1 00737U 64003A   26044.62109352 -.00000011  00000-0  00000-0 0  9997
2 00737  46.4623 124.7537 2599793 242.7414  88.5469  7.39536880676953
Epoch: 2026-02-13T14:54Z
TLE epoch observation values (Epoch: 2026-02-13T14:54:22.480Z)
Latitude
-0.00004°
Longitude
117.50412°
Altitude
5,403.631 km
Speed
5.644 km/s
True Right ascension
08h 19m 00s
True Declination
0° 00' 00"
Sunlit
Object was in full shadow at epoch
Visualization orbit readout
Latitude
Unknown
Longitude
Unknown
Altitude
Unknown
Speed
Unknown
Apparent Right ascension
Unknown
Apparent Declination
Unknown
Sunlit
N/A
Visualization observer readout
Local Sidereal Time
06:29:14
Azimuth
Unknown
Elevation
Unknown
Doppler factor
Unknown
Orbital elements
Apogee altitude
7,644.465 km
Perigee altitude
1,857.725 km
Semi-major axis
11,129.232 km
Eccentricity
0.25998
Inclination
46.4623°
RAAN
124.7537°
Arg. of periapsis
242.7414°
True anomaly
117.3194°
Mean anomaly
88.5469°
Eccentric anomaly
103.05747°
Mean motion
1.84861 °/min
Orbital period
194.74 mins
BSTAR
0
Loading maneuver chart data...
Computing Atmospheric mass density...
Loading historical data...
Loading historical data...
Loading historical data...
Loading historical data...
Loading historical data...
Loading historical data...
Loading historical data...
Other satellites on launch #3 in the year 1964 (1964-01-21 UTC)

Documentation

Showing up to 5 results
|